Weather History for Aniak, AK

Change the Weather History Date:

Thursday, December 6, 2012

  Actual Average Record
Temperature  
Mean Temperature -24 °F -  
Max Temperature -18 °F 11 °F 46 °F (2002)
Min Temperature -29 °F 1 °F -29 °F (2012)
Degree Days  
Heating Degree Days 88    
Moisture  
Dew Point -29 °F    
Average Humidity 76    
Maximum Humidity 100    
Minimum Humidity 48    
Precipitation  
Precipitation 0.00 in - - ()
Sea Level Pressure  
Sea Level Pressure 30.03 in    
Wind  
Wind Speed 0 mph (SE)    
Max Wind Speed 5 mph    
Max Gust Speed -    
Visibility 10 miles    
Events      
Averages and records for this station are not official NWS values.
T = Trace of Precipitation, MM = Missing Value Source: NWS Daily Summary

Daily Weather History Graph

Daily Weather History Graph

Search for Another Location

Airport:

Trip Planner

Search our weather history database for the weather conditions in past years. The results will help you decide how hot, cold, wet, or windy it might be!

Date:

Astronomy

Dec. 06, 2012 Rise Set
Actual Time 10:39 AM AKST 4:19 PM AKST
Civil Twilight 9:37 AM AKST 5:20 PM AKST
Nautical Twilight 8:38 AM AKST 6:20 PM AKST
Astronomical Twilight 7:44 AM AKST 7:14 PM AKST
Moon 1:04 AM AKST (12/6) 1:44 PM AKST (12/6)
Length of Visible Light 7h 43m
Length of Day
5h 40m
Waning Gibbous, 48% of the Moon is Illuminated
Dec 6
Waning Gibbous
Dec 12
New
Dec 19
First Quarter
Dec 28
Full
Jan 4
Last Quarter

Hourly Weather History & Observations

Time (AKST) Temp. Windchill Dew Point Humidity Pressure Visibility Wind Dir Wind Speed Gust Speed Precip Events Conditions
12:16 AM -22.0 °F - - N/A% 29.92 in 10.0 mi Calm Calm - N/A   Clear
12:36 AM -22.0 °F - - N/A% 29.92 in 10.0 mi Calm Calm - N/A   Clear
12:56 AM -23.8 °F - - N/A% 29.93 in 10.0 mi Calm Calm - N/A   Clear
1:16 AM -23.8 °F -35.0 °F - N/A% 29.94 in 10.0 mi SE 3.5 mph - N/A   Clear
1:36 AM -23.8 °F - - N/A% 29.94 in 10.0 mi Calm Calm - N/A   Clear
1:56 AM -23.8 °F - - N/A% 29.94 in 10.0 mi Calm Calm - N/A   Clear
2:36 AM -23.8 °F - - N/A% 29.94 in 10.0 mi Calm Calm - N/A   Clear
2:56 AM -25.6 °F - - N/A% 29.94 in 10.0 mi Calm Calm - N/A   Clear
3:16 AM -25.6 °F - - N/A% 29.94 in 7.0 mi Calm Calm - N/A   Clear
3:36 AM -27.4 °F - - N/A% 29.95 in 10.0 mi Calm Calm - N/A   Clear
3:56 AM -25.6 °F - - N/A% 29.95 in 10.0 mi Calm Calm - N/A   Clear
4:16 AM -25.6 °F - - N/A% 29.95 in 10.0 mi Calm Calm - N/A   Clear
4:36 AM -25.6 °F - - N/A% 29.96 in 10.0 mi Calm Calm - N/A   Clear
4:56 AM -25.6 °F - - N/A% 29.96 in 10.0 mi Calm Calm - N/A   Clear
5:16 AM -25.6 °F -39.8 °F - N/A% 29.96 in 10.0 mi SE 4.6 mph - N/A   Clear
5:36 AM -25.6 °F - - N/A% 29.96 in 10.0 mi Calm Calm - N/A   Clear
5:56 AM -25.6 °F - - N/A% 29.96 in 10.0 mi Calm Calm - N/A   Clear
6:16 AM -25.6 °F - - N/A% 29.97 in 10.0 mi Calm Calm - N/A   Clear
6:36 AM -25.6 °F -37.1 °F - N/A% 29.97 in 10.0 mi SE 3.5 mph - N/A   Clear
6:56 AM -27.4 °F - - N/A% 29.98 in 10.0 mi Calm Calm - N/A   Clear
7:16 AM -27.4 °F - - N/A% 29.98 in 10.0 mi Calm Calm - N/A   Clear
7:36 AM -27.4 °F - - N/A% 29.98 in 10.0 mi Calm Calm - N/A   Clear
7:56 AM -27.4 °F - - N/A% 29.98 in 8.0 mi Calm Calm - N/A   Clear
8:16 AM -27.4 °F - - N/A% 29.99 in 5.0 mi Calm Calm - N/A   Clear
8:36 AM -27.4 °F - - N/A% 29.99 in 5.0 mi Calm Calm - N/A   Clear
8:56 AM -27.4 °F - - N/A% 30.00 in 6.0 mi Calm Calm - N/A   Clear
9:16 AM -27.4 °F - - N/A% 30.00 in 10.0 mi Calm Calm - N/A   Clear
9:36 AM -27.4 °F - - N/A% 30.01 in 10.0 mi Calm Calm - N/A   Clear
9:56 AM -29.2 °F - - N/A% 30.02 in 10.0 mi Calm Calm - N/A   Clear
10:16 AM -27.4 °F - - N/A% 30.02 in 10.0 mi Calm Calm - N/A   Clear
10:36 AM -27.4 °F - - N/A% 30.02 in 8.0 mi Calm Calm - N/A   Clear
10:56 AM -27.4 °F - - N/A% 30.03 in 9.0 mi Calm Calm - N/A   Clear
11:16 AM -27.4 °F - - N/A% 30.03 in 5.0 mi Calm Calm - N/A   Clear
11:36 AM -27.4 °F - - N/A% 30.04 in 9.0 mi Calm Calm - N/A   Clear
11:56 AM -25.6 °F -37.1 °F - N/A% 30.04 in 8.0 mi SE 3.5 mph - N/A   Clear
12:16 PM -25.6 °F - -27.4 °F 91% 30.05 in 10.0 mi Calm Calm - N/A   Clear
12:36 PM -23.8 °F -37.7 °F - N/A% 30.05 in 10.0 mi ESE 4.6 mph - N/A   Clear
12:56 PM -23.8 °F - - N/A% 30.06 in 10.0 mi Calm Calm - N/A   Clear
1:16 PM -23.8 °F - -23.8 °F 100% 30.05 in 10.0 mi Calm Calm - N/A   Clear
1:36 PM -22.0 °F - - N/A% 30.05 in 10.0 mi Calm Calm - N/A   Clear
1:56 PM -20.2 °F - - N/A% 30.05 in 10.0 mi Calm Calm - N/A   Clear
2:16 PM -20.2 °F - -29.2 °F 63% 30.06 in 7.0 mi Calm Calm - N/A   Clear
2:36 PM -20.2 °F - -34.6 °F 48% 30.06 in 10.0 mi Calm Calm - N/A   Clear
2:56 PM -18.4 °F - - N/A% 30.06 in 10.0 mi Calm Calm - N/A   Clear
3:16 PM -18.4 °F - - N/A% 30.07 in 10.0 mi Calm Calm - N/A   Clear
3:36 PM -18.4 °F - - N/A% 30.07 in 10.0 mi Calm Calm - N/A   Clear
3:56 PM -18.4 °F - - N/A% 30.06 in 10.0 mi Calm Calm - N/A   Clear
4:16 PM -18.4 °F - - N/A% 30.07 in 10.0 mi Calm Calm - N/A   Clear
4:36 PM -20.2 °F - - N/A% 30.07 in 10.0 mi Calm Calm - N/A   Clear
4:56 PM -20.2 °F - - N/A% 30.07 in 10.0 mi Calm Calm - N/A   Clear
5:36 PM -23.8 °F - - N/A% 30.08 in 10.0 mi Calm Calm - N/A   Clear
5:56 PM -23.8 °F - - N/A% 30.08 in 10.0 mi Calm Calm - N/A   Clear
6:16 PM -23.8 °F - - N/A% 30.08 in 10.0 mi Calm Calm - N/A   Clear
6:36 PM -23.8 °F - - N/A% 30.09 in 10.0 mi Calm Calm - N/A   Clear
6:56 PM -23.8 °F - - N/A% 30.09 in 10.0 mi Calm Calm - N/A   Clear
7:16 PM -23.8 °F - - N/A% 30.10 in 10.0 mi Calm Calm - N/A   Clear
7:36 PM -25.6 °F - - N/A% 30.10 in 10.0 mi Calm Calm - N/A   Clear
7:56 PM -25.6 °F - - N/A% 30.10 in 10.0 mi Calm Calm - N/A   Clear
8:16 PM -25.6 °F - - N/A% 30.10 in 10.0 mi Calm Calm - N/A   Clear
8:36 PM -25.6 °F - - N/A% 30.10 in 9.0 mi Calm Calm - N/A   Clear
8:56 PM -25.6 °F - - N/A% 30.11 in 10.0 mi Calm Calm - N/A   Clear
9:16 PM -25.6 °F - - N/A% 30.11 in 10.0 mi Calm Calm - N/A   Clear
9:36 PM -25.6 °F - - N/A% 30.12 in 10.0 mi Calm Calm - N/A   Clear
9:56 PM -25.6 °F - - N/A% 30.12 in 10.0 mi Calm Calm - N/A   Clear
10:16 PM -25.6 °F - - N/A% 30.12 in 10.0 mi Calm Calm - N/A   Clear
10:36 PM -25.6 °F - - N/A% 30.11 in 10.0 mi Calm Calm - N/A   Clear
10:56 PM -25.6 °F - - N/A% 30.12 in 10.0 mi Calm Calm - N/A   Clear
11:16 PM -25.6 °F -37.1 °F - N/A% 30.12 in 10.0 mi ESE 3.5 mph - N/A   Clear
11:36 PM -25.6 °F - - N/A% 30.12 in 10.0 mi Calm Calm - N/A   Clear
11:56 PM -27.4 °F - - N/A% 30.13 in 10.0 mi Calm Calm - N/A   Clear